Year,Month,Day,Hour,Minute,Value (Times are PST for temperature in C)
2015,06,28,00,00,21.30
2015,06,28,00,01,21.30
2015,06,28,00,02,21.30
2015,06,28,00,03,21.30
2015,06,28,00,04,21.30
2015,06,28,00,05,21.20
2015,06,28,00,06,21.20
2015,06,28,00,07,21.20
2015,06,28,00,08,21.20
2015,06,28,00,09,21.20
2015,06,28,00,10,21.20
2015,06,28,00,11,21.20
2015,06,28,00,12,21.20
2015,06,28,00,13,21.20
2015,06,28,00,14,21.20
2015,06,28,00,15,21.20
2015,06,28,00,16,21.20
2015,06,28,00,17,21.10
2015,06,28,00,18,21.10
2015,06,28,00,19,21.10
2015,06,28,00,20,21.10
2015,06,28,00,21,21.10
2015,06,28,00,22,21.10
2015,06,28,00,23,21.10
2015,06,28,00,24,21.10
2015,06,28,00,25,21.10
2015,06,28,00,26,21.00
2015,06,28,00,27,21.00
2015,06,28,00,28,21.00
2015,06,28,00,29,21.00
2015,06,28,00,30,21.00
2015,06,28,00,31,21.00
2015,06,28,00,32,21.00
2015,06,28,00,33,21.00
2015,06,28,00,34,21.00
2015,06,28,00,35,21.00
2015,06,28,00,36,21.00
2015,06,28,00,37,20.90
2015,06,28,00,38,20.90
2015,06,28,00,39,20.90
2015,06,28,00,40,20.90
2015,06,28,00,41,20.90
2015,06,28,00,42,20.90
2015,06,28,00,43,20.90
2015,06,28,00,44,20.90
2015,06,28,00,45,20.90
2015,06,28,00,46,20.80
2015,06,28,00,47,20.80
2015,06,28,00,48,20.80
2015,06,28,00,49,20.80
2015,06,28,00,50,20.80
2015,06,28,00,51,20.80
2015,06,28,00,52,20.80
2015,06,28,00,53,20.80
2015,06,28,00,54,20.80
2015,06,28,00,55,20.70
2015,06,28,00,56,20.70
2015,06,28,00,57,20.70
2015,06,28,00,58,20.70
2015,06,28,00,59,20.60
2015,06,28,01,00,20.60
2015,06,28,01,01,20.60
2015,06,28,01,02,20.60
2015,06,28,01,03,20.50
2015,06,28,01,04,20.50
2015,06,28,01,05,20.50
2015,06,28,01,06,20.40
2015,06,28,01,07,20.40
2015,06,28,01,08,20.40
2015,06,28,01,09,20.40
2015,06,28,01,10,20.40
2015,06,28,01,11,20.40
2015,06,28,01,12,20.40
2015,06,28,01,13,20.40
2015,06,28,01,14,20.30
2015,06,28,01,15,20.30
2015,06,28,01,16,20.30
2015,06,28,01,17,20.30
2015,06,28,01,18,20.30
2015,06,28,01,19,20.30
2015,06,28,01,20,20.30
2015,06,28,01,21,20.30
2015,06,28,01,22,20.30
2015,06,28,01,23,20.30
2015,06,28,01,24,20.30
2015,06,28,01,25,20.20
2015,06,28,01,26,20.20
2015,06,28,01,27,20.20
2015,06,28,01,28,20.20
2015,06,28,01,29,20.10
2015,06,28,01,30,20.10
2015,06,28,01,31,20.10
2015,06,28,01,32,20.10
2015,06,28,01,33,20.10
2015,06,28,01,34,20.00
2015,06,28,01,35,20.00
2015,06,28,01,36,20.00
2015,06,28,01,37,20.00
2015,06,28,01,38,20.00
2015,06,28,01,39,20.00
2015,06,28,01,40,20.00
2015,06,28,01,41,20.00
2015,06,28,01,42,20.10
2015,06,28,01,43,20.00
2015,06,28,01,44,20.00
2015,06,28,01,45,20.00
2015,06,28,01,46,20.00
2015,06,28,01,47,20.00
2015,06,28,01,48,20.00
2015,06,28,01,49,19.90
2015,06,28,01,50,19.90
2015,06,28,01,51,19.90
2015,06,28,01,52,19.90
2015,06,28,01,53,19.90
2015,06,28,01,54,19.90
2015,06,28,01,55,19.90
2015,06,28,01,56,19.90
2015,06,28,01,57,19.90
2015,06,28,01,58,19.80
2015,06,28,01,59,19.80
2015,06,28,02,00,19.80
2015,06,28,02,01,19.80
2015,06,28,02,02,19.80
2015,06,28,02,03,19.80
2015,06,28,02,04,19.80
2015,06,28,02,05,19.80
2015,06,28,02,06,19.80
2015,06,28,02,07,19.80
2015,06,28,02,08,19.80
2015,06,28,02,09,19.80
2015,06,28,02,10,19.80
2015,06,28,02,11,19.80
2015,06,28,02,12,19.80
2015,06,28,02,13,19.80
2015,06,28,02,14,19.80
2015,06,28,02,15,19.70
2015,06,28,02,16,19.70
2015,06,28,02,17,19.70
2015,06,28,02,18,19.70
2015,06,28,02,19,19.70
2015,06,28,02,20,19.70
2015,06,28,02,21,19.60
2015,06,28,02,22,19.70
2015,06,28,02,23,19.70
2015,06,28,02,24,19.70
2015,06,28,02,25,19.60
2015,06,28,02,26,19.60
2015,06,28,02,27,19.60
2015,06,28,02,28,19.60
2015,06,28,02,29,19.60
2015,06,28,02,30,19.60
2015,06,28,02,31,19.60
2015,06,28,02,32,19.60
2015,06,28,02,33,19.60
2015,06,28,02,34,19.60
2015,06,28,02,35,19.60
2015,06,28,02,36,19.60
2015,06,28,02,37,19.60
2015,06,28,02,38,19.60
2015,06,28,02,39,19.60
2015,06,28,02,40,19.60
2015,06,28,02,41,19.60
2015,06,28,02,42,19.60
2015,06,28,02,43,19.60
2015,06,28,02,44,19.60
2015,06,28,02,45,19.60
2015,06,28,02,46,19.60
2015,06,28,02,47,19.60
2015,06,28,02,48,19.60
2015,06,28,02,49,19.60
2015,06,28,02,50,19.60
2015,06,28,02,51,19.60
2015,06,28,02,52,19.60
2015,06,28,02,53,19.60
2015,06,28,02,54,19.50
2015,06,28,02,55,19.50
2015,06,28,02,56,19.50
2015,06,28,02,57,19.40
2015,06,28,02,58,19.40
2015,06,28,02,59,19.40
2015,06,28,03,00,19.40
2015,06,28,03,01,19.40
2015,06,28,03,02,19.40
2015,06,28,03,03,19.30
2015,06,28,03,04,19.30
2015,06,28,03,05,19.30
2015,06,28,03,06,19.30
2015,06,28,03,07,19.20
2015,06,28,03,08,19.20
2015,06,28,03,09,19.20
2015,06,28,03,10,19.10
2015,06,28,03,11,19.10
2015,06,28,03,12,19.10
2015,06,28,03,13,19.00
2015,06,28,03,14,19.00
2015,06,28,03,15,19.00
2015,06,28,03,16,18.90
2015,06,28,03,17,18.90
2015,06,28,03,18,18.90
2015,06,28,03,19,18.80
2015,06,28,03,20,18.80
2015,06,28,03,21,18.80
2015,06,28,03,22,18.80
2015,06,28,03,23,18.70
2015,06,28,03,24,18.70
2015,06,28,03,25,18.70
2015,06,28,03,26,18.70
2015,06,28,03,27,18.70
2015,06,28,03,28,18.70
2015,06,28,03,29,18.70
2015,06,28,03,30,18.70
2015,06,28,03,31,18.70
2015,06,28,03,32,18.70
2015,06,28,03,33,18.70
2015,06,28,03,34,18.60
2015,06,28,03,35,18.60
2015,06,28,03,36,18.50
2015,06,28,03,37,18.40
2015,06,28,03,38,18.40
2015,06,28,03,39,18.30
2015,06,28,03,40,18.30
2015,06,28,03,41,18.30
2015,06,28,03,42,18.30
2015,06,28,03,43,18.20
2015,06,28,03,44,18.20
2015,06,28,03,45,18.20
2015,06,28,03,46,18.20
2015,06,28,03,47,18.20
2015,06,28,03,48,18.20
2015,06,28,03,49,18.10
2015,06,28,03,50,18.10
2015,06,28,03,51,18.10
2015,06,28,03,52,18.10
2015,06,28,03,53,18.10
2015,06,28,03,54,18.00
2015,06,28,03,55,18.00
2015,06,28,03,56,18.00
2015,06,28,03,57,17.90
2015,06,28,03,58,17.90
2015,06,28,03,59,17.90
2015,06,28,04,00,17.80
2015,06,28,04,01,17.80
2015,06,28,04,02,17.80
2015,06,28,04,03,17.80
2015,06,28,04,04,17.80
2015,06,28,04,05,17.70
2015,06,28,04,06,17.70
2015,06,28,04,07,17.70
2015,06,28,04,08,17.70
2015,06,28,04,09,17.70
2015,06,28,04,10,17.70
2015,06,28,04,11,17.60
2015,06,28,04,12,17.60
2015,06,28,04,13,17.60
2015,06,28,04,14,17.60
2015,06,28,04,15,17.60
2015,06,28,04,16,17.60
2015,06,28,04,17,17.60
2015,06,28,04,18,17.60
2015,06,28,04,19,17.60
2015,06,28,04,20,17.60
2015,06,28,04,21,17.60
2015,06,28,04,22,17.50
2015,06,28,04,23,17.50
2015,06,28,04,24,17.50
2015,06,28,04,25,17.50
2015,06,28,04,26,17.50
2015,06,28,04,27,17.50
2015,06,28,04,28,17.50
2015,06,28,04,29,17.50
2015,06,28,04,30,17.50
2015,06,28,04,31,17.50
2015,06,28,04,32,17.50
2015,06,28,04,33,17.50
2015,06,28,04,34,17.50
2015,06,28,04,35,17.50
2015,06,28,04,36,17.50
2015,06,28,04,37,17.60
2015,06,28,04,38,17.60
2015,06,28,04,39,17.60
2015,06,28,04,40,17.60
2015,06,28,04,41,17.60
2015,06,28,04,42,17.60
2015,06,28,04,43,17.70
2015,06,28,04,44,17.70
2015,06,28,04,45,17.70
2015,06,28,04,46,17.70
2015,06,28,04,47,17.70
2015,06,28,04,48,17.70
2015,06,28,04,49,17.70
2015,06,28,04,50,17.70
2015,06,28,04,51,17.70
2015,06,28,04,52,17.70
2015,06,28,04,53,17.70
2015,06,28,04,54,17.70
2015,06,28,04,55,17.70
2015,06,28,04,56,17.70
2015,06,28,04,57,17.70
2015,06,28,04,58,17.70
2015,06,28,04,59,17.70
2015,06,28,05,00,17.70
2015,06,28,05,01,17.70
2015,06,28,05,02,17.70
2015,06,28,05,03,17.70
2015,06,28,05,04,17.70
2015,06,28,05,05,17.60
2015,06,28,05,06,17.60
2015,06,28,05,07,17.60
2015,06,28,05,08,17.60
2015,06,28,05,09,17.60
2015,06,28,05,10,17.60
2015,06,28,05,11,17.60
2015,06,28,05,12,17.60
2015,06,28,05,13,17.50
2015,06,28,05,14,17.50
2015,06,28,05,15,17.50
2015,06,28,05,16,17.50
2015,06,28,05,17,17.50
2015,06,28,05,18,17.50
2015,06,28,05,19,17.50
2015,06,28,05,20,17.50
2015,06,28,05,21,17.50
2015,06,28,05,22,17.50
2015,06,28,05,23,17.50
2015,06,28,05,24,17.50
2015,06,28,05,25,17.50
2015,06,28,05,26,17.50
2015,06,28,05,27,17.40
2015,06,28,05,28,17.40
2015,06,28,05,29,17.40
2015,06,28,05,30,17.40
2015,06,28,05,31,17.40
2015,06,28,05,32,17.40
2015,06,28,05,33,17.40
2015,06,28,05,34,17.40
2015,06,28,05,35,17.40
2015,06,28,05,36,17.40
2015,06,28,05,37,17.40
2015,06,28,05,38,17.40
2015,06,28,05,39,17.40
2015,06,28,05,40,17.30
2015,06,28,05,41,17.30
2015,06,28,05,42,17.30
2015,06,28,05,43,17.30
2015,06,28,05,44,17.30
2015,06,28,05,45,17.30
2015,06,28,05,46,17.30
2015,06,28,05,47,17.30
2015,06,28,05,48,17.30
2015,06,28,05,49,17.30
2015,06,28,05,50,17.30
2015,06,28,05,51,17.30
2015,06,28,05,52,17.30
2015,06,28,05,53,17.30
2015,06,28,05,54,17.30
2015,06,28,05,55,17.30
2015,06,28,05,56,17.40
2015,06,28,05,57,17.40
2015,06,28,05,58,17.40
2015,06,28,05,59,17.40
2015,06,28,06,00,17.50
2015,06,28,06,01,17.50
2015,06,28,06,02,17.50
2015,06,28,06,03,17.60
2015,06,28,06,04,17.60
2015,06,28,06,05,17.60
2015,06,28,06,06,17.70
2015,06,28,06,07,17.70
2015,06,28,06,08,17.80
2015,06,28,06,09,17.80
2015,06,28,06,10,17.80
2015,06,28,06,11,17.90
2015,06,28,06,12,17.90
2015,06,28,06,13,18.00
2015,06,28,06,14,18.00
2015,06,28,06,15,18.10
2015,06,28,06,16,18.10
2015,06,28,06,17,18.20
2015,06,28,06,18,18.20
2015,06,28,06,19,18.20
2015,06,28,06,20,18.30
2015,06,28,06,21,18.30
2015,06,28,06,22,18.40
2015,06,28,06,23,18.40
2015,06,28,06,24,18.50
2015,06,28,06,25,18.60
2015,06,28,06,26,18.60
2015,06,28,06,27,18.70
2015,06,28,06,28,18.80
2015,06,28,06,29,18.80
2015,06,28,06,30,18.90
2015,06,28,06,31,18.90
2015,06,28,06,32,19.00
2015,06,28,06,33,19.10
2015,06,28,06,34,19.20
2015,06,28,06,35,19.20
2015,06,28,06,36,19.30
2015,06,28,06,37,19.30
2015,06,28,06,38,19.40
2015,06,28,06,39,19.40
2015,06,28,06,40,19.50
2015,06,28,06,41,19.60
2015,06,28,06,42,19.60
2015,06,28,06,43,19.70
2015,06,28,06,44,19.70
2015,06,28,06,45,19.80
2015,06,28,06,46,19.80
2015,06,28,06,47,19.80
2015,06,28,06,48,19.80
2015,06,28,06,49,19.80
2015,06,28,06,50,19.80
2015,06,28,06,51,19.80
2015,06,28,06,52,19.80
2015,06,28,06,53,19.80
2015,06,28,06,54,19.80
2015,06,28,06,55,19.80
2015,06,28,06,56,19.80
2015,06,28,06,57,19.80
2015,06,28,06,58,19.90
2015,06,28,06,59,19.90
2015,06,28,07,00,19.90
2015,06,28,07,01,19.90
2015,06,28,07,02,19.90
2015,06,28,07,03,19.90
2015,06,28,07,04,20.00
2015,06,28,07,05,20.00
2015,06,28,07,06,20.00
2015,06,28,07,07,19.90
2015,06,28,07,08,19.90
2015,06,28,07,09,19.90
2015,06,28,07,10,19.90
2015,06,28,07,11,19.90
2015,06,28,07,12,19.80
2015,06,28,07,13,19.80
2015,06,28,07,14,19.80
2015,06,28,07,15,19.80
2015,06,28,07,16,19.70
2015,06,28,07,17,19.70
2015,06,28,07,18,19.70
2015,06,28,07,19,19.60
2015,06,28,07,20,19.60
2015,06,28,07,21,19.60
2015,06,28,07,22,19.50
2015,06,28,07,23,19.50
2015,06,28,07,24,19.50
2015,06,28,07,25,19.50
2015,06,28,07,26,19.50
2015,06,28,07,27,19.40
2015,06,28,07,28,19.40
2015,06,28,07,29,19.40
2015,06,28,07,30,19.50
2015,06,28,07,31,19.50
2015,06,28,07,32,19.50
2015,06,28,07,33,19.50
2015,06,28,07,34,19.50
2015,06,28,07,35,19.50
2015,06,28,07,36,19.50
2015,06,28,07,37,19.50
2015,06,28,07,38,19.40
2015,06,28,07,39,19.40
2015,06,28,07,40,19.40
2015,06,28,07,41,19.40
2015,06,28,07,42,19.40
2015,06,28,07,43,19.50
2015,06,28,07,44,19.50
2015,06,28,07,45,19.50
2015,06,28,07,46,19.60
2015,06,28,07,47,19.60
2015,06,28,07,48,19.60
2015,06,28,07,49,19.70
2015,06,28,07,50,19.70
2015,06,28,07,51,19.70
2015,06,28,07,52,19.80
2015,06,28,07,53,19.80
2015,06,28,07,54,19.80
2015,06,28,07,55,19.90
2015,06,28,07,56,19.90
2015,06,28,07,57,20.00
2015,06,28,07,58,20.00
2015,06,28,07,59,20.10
2015,06,28,08,00,20.10
2015,06,28,08,01,20.20
2015,06,28,08,02,20.20
2015,06,28,08,03,20.20
2015,06,28,08,04,20.30
2015,06,28,08,05,20.30
2015,06,28,08,06,20.40
2015,06,28,08,07,20.50
2015,06,28,08,08,20.50
2015,06,28,08,09,20.60
2015,06,28,08,10,20.70
2015,06,28,08,11,20.70
2015,06,28,08,12,20.80
2015,06,28,08,13,20.80
2015,06,28,08,14,20.90
2015,06,28,08,15,20.90
2015,06,28,08,16,21.00
2015,06,28,08,17,21.00
2015,06,28,08,18,21.10
2015,06,28,08,19,21.20
2015,06,28,08,20,21.20
2015,06,28,08,21,21.30
2015,06,28,08,22,21.40
2015,06,28,08,23,21.50
2015,06,28,08,24,21.50
2015,06,28,08,25,21.60
2015,06,28,08,26,21.70
2015,06,28,08,27,21.80
2015,06,28,08,28,21.80
2015,06,28,08,29,21.90
2015,06,28,08,30,22.00
2015,06,28,08,31,22.10
2015,06,28,08,32,22.20
2015,06,28,08,33,22.30
2015,06,28,08,34,22.40
2015,06,28,08,35,22.50
2015,06,28,08,36,22.70
2015,06,28,08,37,22.80
2015,06,28,08,38,22.80
2015,06,28,08,39,22.90
2015,06,28,08,40,23.00
2015,06,28,08,41,23.10
2015,06,28,08,42,23.20
2015,06,28,08,43,23.30
2015,06,28,08,44,23.40
2015,06,28,08,45,23.50
2015,06,28,08,46,23.50
2015,06,28,08,47,23.60
2015,06,28,08,48,23.70
2015,06,28,08,49,23.80
2015,06,28,08,50,23.90
2015,06,28,08,51,23.90
2015,06,28,08,52,24.00
2015,06,28,08,53,24.00
2015,06,28,08,54,24.10
2015,06,28,08,55,24.20
2015,06,28,08,56,24.30
2015,06,28,08,57,24.30
2015,06,28,08,58,24.40
2015,06,28,08,59,24.40
2015,06,28,09,00,24.50
2015,06,28,09,01,24.60
2015,06,28,09,02,24.60
2015,06,28,09,03,24.70
2015,06,28,09,04,24.80
2015,06,28,09,05,24.90
2015,06,28,09,06,24.90
2015,06,28,09,07,25.00
2015,06,28,09,08,25.10
2015,06,28,09,09,25.20
2015,06,28,09,10,25.20
2015,06,28,09,11,25.30
2015,06,28,09,12,25.40
2015,06,28,09,13,25.40
2015,06,28,09,14,25.50
2015,06,28,09,15,25.50
2015,06,28,09,16,25.60
2015,06,28,09,17,25.60
2015,06,28,09,18,25.60
2015,06,28,09,19,25.60
2015,06,28,09,20,25.60
2015,06,28,09,21,25.70
2015,06,28,09,22,25.70
2015,06,28,09,23,25.70
2015,06,28,09,24,25.70
2015,06,28,09,25,25.80
2015,06,28,09,26,25.80
2015,06,28,09,27,25.80
2015,06,28,09,28,25.80
2015,06,28,09,29,25.80
2015,06,28,09,30,25.80
2015,06,28,09,31,25.80
2015,06,28,09,32,25.80
2015,06,28,09,33,25.80
2015,06,28,09,34,25.80
2015,06,28,09,35,25.80
2015,06,28,09,36,25.80
2015,06,28,09,37,25.80
2015,06,28,09,38,25.90
2015,06,28,09,39,25.90
2015,06,28,09,40,26.00
2015,06,28,09,41,26.00
2015,06,28,09,42,26.00
2015,06,28,09,43,26.10
2015,06,28,09,44,26.10
2015,06,28,09,45,26.10
2015,06,28,09,46,26.20
2015,06,28,09,47,26.20
2015,06,28,09,48,26.20
2015,06,28,09,49,26.20
2015,06,28,09,50,26.20
2015,06,28,09,51,26.30
2015,06,28,09,52,26.30
2015,06,28,09,53,26.30
2015,06,28,09,54,26.30
2015,06,28,09,55,26.30
2015,06,28,09,56,26.30
2015,06,28,09,57,26.40
2015,06,28,09,58,26.30
2015,06,28,09,59,26.40
2015,06,28,10,00,26.40
2015,06,28,10,01,26.40
2015,06,28,10,02,26.50
2015,06,28,10,03,26.50
2015,06,28,10,04,26.50
2015,06,28,10,05,26.60
2015,06,28,10,06,26.60
2015,06,28,10,07,26.70
2015,06,28,10,08,26.80
2015,06,28,10,09,26.80
2015,06,28,10,10,26.90
2015,06,28,10,11,26.90
2015,06,28,10,12,26.90
2015,06,28,10,13,26.90
2015,06,28,10,14,27.00
2015,06,28,10,15,27.00
2015,06,28,10,16,27.00
2015,06,28,10,17,27.00
2015,06,28,10,18,27.00
2015,06,28,10,19,26.90
2015,06,28,10,20,26.90
2015,06,28,10,21,26.90
2015,06,28,10,22,26.90
2015,06,28,10,23,26.90
2015,06,28,10,24,27.00
2015,06,28,10,25,27.00
2015,06,28,10,26,27.10
2015,06,28,10,27,27.10
2015,06,28,10,28,27.00
2015,06,28,10,29,26.80
2015,06,28,10,30,26.70
2015,06,28,10,31,26.60
2015,06,28,10,32,26.40
2015,06,28,10,33,26.20
2015,06,28,10,34,26.10
2015,06,28,10,35,25.90
2015,06,28,10,36,25.70
2015,06,28,10,37,25.50
2015,06,28,10,38,25.20
2015,06,28,10,39,25.10
2015,06,28,10,40,24.90
2015,06,28,10,41,24.60
2015,06,28,10,42,24.40
2015,06,28,10,43,24.20
2015,06,28,10,44,24.00
2015,06,28,10,45,23.70
2015,06,28,10,46,23.50
2015,06,28,10,47,23.40
2015,06,28,10,48,23.20
2015,06,28,10,49,23.10
2015,06,28,10,50,23.00
2015,06,28,10,51,22.90
2015,06,28,10,52,22.80
2015,06,28,10,53,22.60
2015,06,28,10,54,22.50
2015,06,28,10,55,22.40
2015,06,28,10,56,22.40
2015,06,28,10,57,22.30
2015,06,28,10,58,22.30
2015,06,28,10,59,22.20
2015,06,28,11,00,22.20
2015,06,28,11,01,22.20
2015,06,28,11,02,22.20
2015,06,28,11,03,22.20
2015,06,28,11,04,22.20
2015,06,28,11,05,22.20
2015,06,28,11,06,22.20
2015,06,28,11,07,22.20
2015,06,28,11,08,22.20
2015,06,28,11,09,22.20
2015,06,28,11,10,22.10
2015,06,28,11,11,22.10
2015,06,28,11,12,22.10
2015,06,28,11,13,22.20
2015,06,28,11,14,22.20
2015,06,28,11,15,22.20
2015,06,28,11,16,22.20
2015,06,28,11,17,22.30
2015,06,28,11,18,22.30
2015,06,28,11,19,22.30
2015,06,28,11,20,22.40
2015,06,28,11,21,22.30
2015,06,28,11,22,22.30
2015,06,28,11,23,22.30
2015,06,28,11,24,22.40
2015,06,28,11,25,22.40
2015,06,28,11,26,22.40
2015,06,28,11,27,22.40
2015,06,28,11,28,22.50
2015,06,28,11,29,22.50
2015,06,28,11,30,22.60
2015,06,28,11,31,22.60
2015,06,28,11,32,22.70
2015,06,28,11,33,22.70
2015,06,28,11,34,22.80
2015,06,28,11,35,22.80
2015,06,28,11,36,22.80
2015,06,28,11,37,22.80
2015,06,28,11,38,22.80
2015,06,28,11,39,22.90
2015,06,28,11,40,22.90
2015,06,28,11,41,22.90
2015,06,28,11,42,22.90
2015,06,28,11,43,22.90
2015,06,28,11,44,22.90
2015,06,28,11,45,22.90
2015,06,28,11,46,23.00
2015,06,28,11,47,23.00
2015,06,28,11,48,23.10
2015,06,28,11,49,23.10
2015,06,28,11,50,23.10
2015,06,28,11,51,23.10
2015,06,28,11,52,23.10
2015,06,28,11,53,23.20
2015,06,28,11,54,23.20
2015,06,28,11,55,23.20
2015,06,28,11,56,23.20
2015,06,28,11,57,23.30
2015,06,28,11,58,23.30
2015,06,28,11,59,23.30
2015,06,28,12,00,23.40
2015,06,28,12,01,23.40
2015,06,28,12,02,23.50
2015,06,28,12,03,23.50
2015,06,28,12,04,23.60
2015,06,28,12,05,23.60
2015,06,28,12,06,23.60
2015,06,28,12,07,23.70
2015,06,28,12,08,23.70
2015,06,28,12,09,23.70
2015,06,28,12,10,23.80
2015,06,28,12,11,23.80
2015,06,28,12,12,23.80
2015,06,28,12,13,23.80
2015,06,28,12,14,23.80
2015,06,28,12,15,23.90
2015,06,28,12,16,23.90
2015,06,28,12,17,23.90
2015,06,28,12,18,24.00
2015,06,28,12,19,24.00
2015,06,28,12,20,24.10
2015,06,28,12,21,24.10
2015,06,28,12,22,24.10
2015,06,28,12,23,24.10
2015,06,28,12,24,24.10
2015,06,28,12,25,24.10
2015,06,28,12,26,24.10
2015,06,28,12,27,24.20
2015,06,28,12,28,24.10
2015,06,28,12,29,24.10
2015,06,28,12,30,24.10
2015,06,28,12,31,24.10
2015,06,28,12,32,24.10
2015,06,28,12,33,24.20
2015,06,28,12,34,24.20
2015,06,28,12,35,24.20
2015,06,28,12,36,24.20
2015,06,28,12,37,24.20
2015,06,28,12,38,24.20
2015,06,28,12,39,24.10
2015,06,28,12,40,24.10
2015,06,28,12,41,24.10
2015,06,28,12,42,24.10
2015,06,28,12,43,24.10
2015,06,28,12,44,24.10
2015,06,28,12,45,24.10
2015,06,28,12,46,24.10
2015,06,28,12,47,24.20
2015,06,28,12,48,24.20
2015,06,28,12,49,24.20
2015,06,28,12,50,24.20
2015,06,28,12,51,24.20
2015,06,28,12,52,24.10
2015,06,28,12,53,24.10
2015,06,28,12,54,24.10
2015,06,28,12,55,24.00
2015,06,28,12,56,24.00
2015,06,28,12,57,24.00
2015,06,28,12,58,23.90
2015,06,28,12,59,23.90
2015,06,28,13,00,23.90
2015,06,28,13,01,23.90
2015,06,28,13,02,23.90
2015,06,28,13,03,23.90
2015,06,28,13,04,24.00
2015,06,28,13,05,24.10
2015,06,28,13,06,24.10
2015,06,28,13,07,24.10
2015,06,28,13,08,24.20
2015,06,28,13,09,24.20
2015,06,28,13,10,24.20
2015,06,28,13,11,24.20
2015,06,28,13,12,24.20
2015,06,28,13,13,24.20
2015,06,28,13,14,24.30
2015,06,28,13,15,24.30
2015,06,28,13,16,24.30
2015,06,28,13,17,24.30
2015,06,28,13,18,24.30
2015,06,28,13,19,24.20
2015,06,28,13,20,24.20
2015,06,28,13,21,24.20
2015,06,28,13,22,24.20
2015,06,28,13,23,24.20
2015,06,28,13,24,24.20
2015,06,28,13,25,24.10
2015,06,28,13,26,24.10
2015,06,28,13,27,24.00
2015,06,28,13,28,23.90
2015,06,28,13,29,23.90
2015,06,28,13,30,23.80
2015,06,28,13,31,23.80
2015,06,28,13,32,23.80
2015,06,28,13,33,23.80
2015,06,28,13,34,23.70
2015,06,28,13,35,23.70
2015,06,28,13,36,23.70
2015,06,28,13,37,23.70
2015,06,28,13,38,23.70
2015,06,28,13,39,23.60
2015,06,28,13,40,23.60
2015,06,28,13,41,23.60
2015,06,28,13,42,23.60
2015,06,28,13,43,23.60
2015,06,28,13,44,23.60
2015,06,28,13,45,23.60
2015,06,28,13,46,23.60
2015,06,28,13,47,23.70
2015,06,28,13,48,23.70
2015,06,28,13,49,23.70
2015,06,28,13,50,23.80
2015,06,28,13,51,23.80
2015,06,28,13,52,23.90
2015,06,28,13,53,23.90
2015,06,28,13,54,23.90
2015,06,28,13,55,24.00
2015,06,28,13,56,24.00
2015,06,28,13,57,24.10
2015,06,28,13,58,24.10
2015,06,28,13,59,24.10
2015,06,28,14,00,24.20
2015,06,28,14,01,24.20
2015,06,28,14,02,24.20
2015,06,28,14,03,24.30
2015,06,28,14,04,24.30
2015,06,28,14,05,24.30
2015,06,28,14,06,24.40
2015,06,28,14,07,24.40
2015,06,28,14,08,24.50
2015,06,28,14,09,24.60
2015,06,28,14,10,24.60
2015,06,28,14,11,24.60
2015,06,28,14,12,24.70
2015,06,28,14,13,24.70
2015,06,28,14,14,24.70
2015,06,28,14,15,24.80
2015,06,28,14,16,24.80
2015,06,28,14,17,24.90
2015,06,28,14,18,24.90
2015,06,28,14,19,24.90
2015,06,28,14,20,25.00
2015,06,28,14,21,25.00
2015,06,28,14,22,25.10
2015,06,28,14,23,25.10
2015,06,28,14,24,25.20
2015,06,28,14,25,25.20
2015,06,28,14,26,25.20
2015,06,28,14,27,25.20
2015,06,28,14,28,25.20
2015,06,28,14,29,25.30
2015,06,28,14,30,25.30
2015,06,28,14,31,25.30
2015,06,28,14,32,25.30
2015,06,28,14,33,25.20
2015,06,28,14,34,25.20
2015,06,28,14,35,25.20
2015,06,28,14,36,25.10
2015,06,28,14,37,25.10
2015,06,28,14,38,25.10
2015,06,28,14,39,25.10
2015,06,28,14,40,25.10
2015,06,28,14,41,25.10
2015,06,28,14,42,25.10
2015,06,28,14,43,25.10
2015,06,28,14,44,25.10
2015,06,28,14,45,25.10
2015,06,28,14,46,25.10
2015,06,28,14,47,25.10
2015,06,28,14,48,25.10
2015,06,28,14,49,25.10
2015,06,28,14,50,25.00
2015,06,28,14,51,25.00
2015,06,28,14,52,25.00
2015,06,28,14,53,25.00
2015,06,28,14,54,25.00
2015,06,28,14,55,25.00
2015,06,28,14,56,24.90
2015,06,28,14,57,24.90
2015,06,28,14,58,24.90
2015,06,28,14,59,24.90
2015,06,28,15,00,24.80
2015,06,28,15,01,24.80
2015,06,28,15,02,24.80
2015,06,28,15,03,24.80
2015,06,28,15,04,24.80
2015,06,28,15,05,24.70
2015,06,28,15,06,24.70
2015,06,28,15,07,24.70
2015,06,28,15,08,24.70
2015,06,28,15,09,24.70
2015,06,28,15,10,24.70
2015,06,28,15,11,24.70
2015,06,28,15,12,24.70
2015,06,28,15,13,24.60
2015,06,28,15,14,24.60
2015,06,28,15,15,24.60
2015,06,28,15,16,24.60
2015,06,28,15,17,24.60
2015,06,28,15,18,24.50
2015,06,28,15,19,24.30
2015,06,28,15,20,24.10
2015,06,28,15,21,23.90
2015,06,28,15,22,23.70
2015,06,28,15,23,23.50
2015,06,28,15,24,23.30
2015,06,28,15,25,23.10
2015,06,28,15,26,22.90
2015,06,28,15,27,22.70
2015,06,28,15,28,22.50
2015,06,28,15,29,22.30
2015,06,28,15,30,22.20
2015,06,28,15,31,22.00
2015,06,28,15,32,21.90
2015,06,28,15,33,21.80
2015,06,28,15,34,21.70
2015,06,28,15,35,21.60
2015,06,28,15,36,21.40
2015,06,28,15,37,21.30
2015,06,28,15,38,21.20
2015,06,28,15,39,21.10
2015,06,28,15,40,21.00
2015,06,28,15,41,20.90
2015,06,28,15,42,20.90
2015,06,28,15,43,20.90
2015,06,28,15,44,20.80
2015,06,28,15,45,20.90
2015,06,28,15,46,20.90
2015,06,28,15,47,20.90
2015,06,28,15,48,20.90
2015,06,28,15,49,20.90
2015,06,28,15,50,20.90
2015,06,28,15,51,20.90
2015,06,28,15,52,20.80
2015,06,28,15,53,20.80
2015,06,28,15,54,20.80
2015,06,28,15,55,20.70
2015,06,28,15,56,20.70
2015,06,28,15,57,20.70
2015,06,28,15,58,20.70
2015,06,28,15,59,20.70
2015,06,28,16,00,20.70
2015,06,28,16,01,20.70
2015,06,28,16,02,20.70
2015,06,28,16,03,20.70
2015,06,28,16,04,20.70
2015,06,28,16,05,20.70
2015,06,28,16,06,20.80
2015,06,28,16,07,20.80
2015,06,28,16,08,20.80
2015,06,28,16,09,20.90
2015,06,28,16,10,20.90
2015,06,28,16,11,20.90
2015,06,28,16,12,21.00
2015,06,28,16,13,21.00
2015,06,28,16,14,21.10
2015,06,28,16,15,21.10
2015,06,28,16,16,21.20
2015,06,28,16,17,21.20
2015,06,28,16,18,21.20
2015,06,28,16,19,21.30
2015,06,28,16,20,21.30
2015,06,28,16,21,21.40
2015,06,28,16,22,21.40
2015,06,28,16,23,21.40
2015,06,28,16,24,21.50
2015,06,28,16,25,21.50
2015,06,28,16,26,21.50
2015,06,28,16,27,21.60
2015,06,28,16,28,21.60
2015,06,28,16,29,21.60
2015,06,28,16,30,21.60
2015,06,28,16,31,21.60
2015,06,28,16,32,21.60
2015,06,28,16,33,21.70
2015,06,28,16,34,21.70
2015,06,28,16,35,21.70
2015,06,28,16,36,21.70
2015,06,28,16,37,21.70
2015,06,28,16,38,21.70
2015,06,28,16,39,21.70
2015,06,28,16,40,21.70
2015,06,28,16,41,21.70
2015,06,28,16,42,21.70
2015,06,28,16,43,21.70
2015,06,28,16,44,21.70
2015,06,28,16,45,21.70
2015,06,28,16,46,21.70
2015,06,28,16,47,21.70
2015,06,28,16,48,21.70
2015,06,28,16,49,21.60
2015,06,28,16,50,21.60
2015,06,28,16,51,21.60
2015,06,28,16,52,21.60
2015,06,28,16,53,21.70
2015,06,28,16,54,21.70
2015,06,28,16,55,21.70
2015,06,28,16,56,21.70
2015,06,28,16,57,21.70
2015,06,28,16,58,21.80
2015,06,28,16,59,21.80
2015,06,28,17,00,21.80
2015,06,28,17,01,21.80
2015,06,28,17,02,21.80
2015,06,28,17,03,21.90
2015,06,28,17,04,21.90
2015,06,28,17,05,21.90
2015,06,28,17,06,21.90
2015,06,28,17,07,21.90
2015,06,28,17,08,22.00
2015,06,28,17,09,22.00
2015,06,28,17,10,22.00
2015,06,28,17,11,22.00
2015,06,28,17,12,22.00
2015,06,28,17,13,22.00
2015,06,28,17,14,22.00
2015,06,28,17,15,22.00
2015,06,28,17,16,22.00
2015,06,28,17,17,21.90
2015,06,28,17,18,21.90
2015,06,28,17,19,21.90